Location: Newark
(52.8300°N, 8.0000°E)
Time: 06:16:02
(UTC+00:00)

STARLINK-1088 - Pass Details

Date: 01 February 2020
Orbit: 345 x 354 km, 53.0° (Epoch: 23 February)

Event Time Altitude Azimuth Distance (km) Brightness Sun altitude
Rises 17:17:18 0° 283° (WNW) 2,190 7.9 -10.0°
Reaches altitude 10° 17:19:33 10° 268° (W) 1,342 7.1 -10.3°
Maximum altitude 17:22:01 23° 213° (SSW) 814 5.1 -10.7°
Drops below altitude 10° 17:24:28 10° 157° (SSE) 1,335 5.5 -11.0°
Enters shadow 17:26:50 - 142° (SE) 2,230 6.5 -11.4°
